Weather History for KIOW - December, 2012

Change the Weather History Date:

Saturday, December 1, 2012

  Actual Average Record
Temperature  
Mean Temperature 44 °F 31 °F  
Max Temperature 56 °F 39 °F 61 °F (1970)
Min Temperature 32 °F 23 °F 5 °F (2005)
Degree Days  
Heating Degree Days 21 34  
Month to date heating degree days 21 34  
Since 1 July heating degree days 1360 1341  
Cooling Degree Days 0 0  
Month to date cooling degree days 0 0  
Year to date cooling degree days 1266 912  
Moisture  
Dew Point 45 °F    
Average Humidity 93    
Maximum Humidity 100    
Minimum Humidity 85    
Precipitation  
Precipitation 0.02 in 0.07 in 1.56 in (1985)
Month to date precipitation 0.02 0.07  
Year to date precipitation 24.85 34.83  
Sea Level Pressure  
Sea Level Pressure 29.92 in    
Wind  
Wind Speed 4 mph (SE)    
Max Wind Speed 13 mph    
Max Gust Speed 15 mph    
Visibility 5 miles    
Events Fog , Rain    
T = Trace of Precipitation, MM = Missing Value Source: NWS Daily Summary

Daily Weather History Graph

Daily Weather History Graph

Search for Another Location

Airport or City:

Trip Planner

Search our weather history database for the weather conditions in past years. The results will help you decide how hot, cold, wet, or windy it might be!

Date:

Astronomy

Dec. 01, 2012 Rise Set
Actual Time 7:14 AM CST 4:36 PM CST
Civil Twilight 6:43 AM CST 5:07 PM CST
Nautical Twilight 6:08 AM CST 5:42 PM CST
Astronomical Twilight 5:35 AM CST 6:15 PM CST
Moon 7:27 PM CST (12/1) 9:26 AM CST (12/1)
Length of Visible Light 10h 24m
Length of Day
9h 22m
Waning Gibbous, 91% of the Moon is Illuminated
Dec 1
Waning Gibbous
Dec 6
Last Quarter
Dec 13
New
Dec 19
First Quarter
Dec 28
Full

Hourly Weather History & Observations

Time (CST) Temp. Windchill Dew Point Humidity Pressure Visibility Wind Dir Wind Speed Gust Speed Precip Events Conditions
12:52 AM 37.0 °F 34.5 °F 33.1 °F 86% 30.10 in 7.0 mi East 3.5 mph - N/A   Clear
1:52 AM 35.1 °F 32.2 °F 32.0 °F 89% 30.09 in 6.0 mi East 3.5 mph - N/A   Clear
2:52 AM 35.1 °F 32.2 °F 32.0 °F 89% 30.08 in 6.0 mi ENE 3.5 mph - N/A   Clear
3:52 AM 35.1 °F 32.2 °F 32.0 °F 89% 30.07 in 6.0 mi East 3.5 mph - N/A   Clear
4:52 AM 35.1 °F 30.1 °F 32.0 °F 89% 30.05 in 6.0 mi East 5.8 mph - N/A   Clear
5:52 AM 34.0 °F 29.8 °F 30.9 °F 89% 30.03 in 5.0 mi ESE 4.6 mph - N/A   Clear
6:52 AM 34.0 °F - 30.9 °F 89% 30.02 in 6.0 mi Calm Calm - N/A   Clear
7:52 AM 35.1 °F 32.2 °F 32.0 °F 89% 30.01 in 4.0 mi SE 3.5 mph - N/A   Mostly Cloudy
8:52 AM 37.9 °F 35.5 °F 36.0 °F 93% 30.00 in 5.0 mi SE 3.5 mph - N/A   Mostly Cloudy
9:17 AM 41.0 °F 37.1 °F 37.4 °F 87% 29.98 in 5.0 mi SE 5.8 mph - N/A   Mostly Cloudy
9:52 AM 43.0 °F 40.3 °F 39.0 °F 86% 29.99 in 5.0 mi SSE 4.6 mph - N/A   Overcast
10:52 AM 45.0 °F - 42.1 °F 90% 29.96 in 6.0 mi Calm Calm - N/A   Overcast
11:16 AM 46.4 °F 42.9 °F 42.8 °F 87% 29.94 in 5.0 mi SE 6.9 mph - N/A   Overcast
11:23 AM 46.4 °F 43.5 °F 42.8 °F 87% 29.93 in 6.0 mi SE 5.8 mph - N/A   Overcast
11:52 AM 48.0 °F - 45.0 °F 89% 29.94 in 4.0 mi SE 4.6 mph - 0.00 in Rain Light Rain
12:15 PM 48.2 °F - 46.4 °F 93% 29.92 in 1.8 mi SE 3.5 mph - 0.00 in Rain Light Rain
12:52 PM 48.9 °F - 48.0 °F 97% 29.91 in 1.2 mi SSE 4.6 mph - 0.02 in Rain Light Rain
1:52 PM 51.1 °F - 50.0 °F 96% 29.89 in 2.0 mi Calm Calm - 0.00 in   Overcast
2:24 PM 51.8 °F - 51.8 °F 100% 29.87 in 3.0 mi South 3.5 mph - N/A   Overcast
2:32 PM 51.8 °F - 51.8 °F 100% 29.86 in 3.0 mi South 4.6 mph - N/A   Overcast
2:52 PM 54.0 °F - 52.0 °F 93% 29.87 in 4.0 mi SSE 8.1 mph - N/A   Overcast
3:52 PM 55.9 °F - 53.1 °F 90% 29.87 in 6.0 mi South 8.1 mph - N/A   Overcast
4:52 PM 55.9 °F - 53.1 °F 90% 29.86 in 7.0 mi South 9.2 mph - N/A   Overcast
5:03 PM 55.4 °F - 53.6 °F 94% 29.85 in 8.0 mi South 8.1 mph - N/A   Overcast
5:52 PM 55.9 °F - 52.0 °F 87% 29.85 in 8.0 mi South 10.4 mph - N/A   Mostly Cloudy
6:15 PM 55.4 °F - 51.8 °F 88% 29.84 in 8.0 mi South 4.6 mph - N/A   Mostly Cloudy
6:47 PM 55.4 °F - 51.8 °F 88% 29.85 in 8.0 mi South 6.9 mph - N/A   Mostly Cloudy
6:52 PM 55.0 °F - 52.0 °F 89% 29.87 in 8.0 mi South 6.9 mph - N/A   Mostly Cloudy
7:19 PM 55.4 °F - 51.8 °F 88% 29.86 in 8.0 mi South 6.9 mph - N/A   Overcast
7:52 PM 55.0 °F - 52.0 °F 89% 29.87 in 8.0 mi Calm Calm - N/A   Overcast
8:52 PM 53.1 °F - 51.1 °F 93% 29.87 in 5.0 mi Calm Calm - N/A   Overcast
9:52 PM 52.0 °F - 51.1 °F 97% 29.86 in 5.0 mi Calm Calm - N/A   Overcast
10:52 PM 52.0 °F - 51.1 °F 97% 29.86 in 4.0 mi Calm Calm - N/A   Overcast
11:13 PM 50.0 °F - 50.0 °F 100% 29.85 in 1.8 mi Calm Calm - N/A   Mostly Cloudy
11:17 PM 50.0 °F - 48.2 °F 94% 29.85 in 1.0 mi Calm Calm - N/A   Mostly Cloudy
11:20 PM 50.0 °F - 48.2 °F 94% 29.85 in 0.8 mi Calm Calm - N/A   Mostly Cloudy
11:31 PM 48.2 °F - 48.2 °F 100% 29.85 in 0.2 mi Calm Calm - N/A Fog Fog
11:50 PM 46.4 °F - 46.4 °F 100% 29.85 in 0.2 mi Calm Calm - N/A Fog Fog
11:52 PM 48.0 °F - 46.9 °F 96% 29.87 in 0.2 mi Calm Calm - N/A Fog Fog